Home > Time Zones > World Clock > Weather > Japan > Naha > Past weeks

Flag Weather past 2 weeks in Naha, Okinawa, Japan

Now
70 °F

Passing clouds.


Feels Like: 70 °F
Forecast: 69 / 76 °F
Wind: 12 mph from Northeast

Location: Naha Airport

Current Time: Nov 27, 2014 at 5:29:40 AM

Latest Report: Nov 27, 2014 at 5:00 AM


Visibility: N/A

Pressure: 30.04 "Hg

Humidity: 69%

Dew point: 59 °F

Location of NahaLocation

Historic Weather in Naha — Graph

°F

Naha temperature yesterday

Maximum temperature yesterday: 79 °F (at 2:00 PM)
Minimum temperature yesterday: 70 °F (at 2:30 AM)
Average temperature yesterday: 74 °F

Past Weeks' High & Low Weather Summary

 TemperatureHumidityPressure
High79 °F (Nov 21, 1:00 PM)88% (Nov 17, 10:00 PM)30.24 "Hg (Nov 17, 10:00 PM)
Low64 °F (Nov 21, 4:30 AM)41% (Nov 19, 10:00 AM)29.86 "Hg (Nov 25, 2:00 PM)
Average72 °F63%30.08 "Hg
* Reported Nov 12 4:00 AM — Nov 27 4:30 AM, Naha, Weather by CustomWeather, © 2014

Note: Actual official high and low records may vary slightly from our data, if they occured in-between our weather recording intervals... More about our weather records

Advertising

Naha weather history for previous 24 hours

 ConditionsComfort  
Time TempWeatherWind HumidityBarometerVisibility
4:30 AM
Nov 27
70 °FPassing clouds.10 mph69%30.04 "HgN/A
4:00 AM70 °FPassing clouds.10 mph69%30.04 "HgN/A
3:30 AM72 °FPassing clouds.9 mph65%30.04 "HgN/A
3:00 AM72 °FPartly cloudy.9 mph65%30.04 "HgN/A
2:30 AM72 °FPassing clouds.10 mph65%30.04 "HgN/A
2:00 AM72 °FPartly cloudy.8 mph69%30.07 "HgN/A
1:30 AM72 °FPassing clouds.7 mph69%30.07 "HgN/A
1:00 AM72 °FPassing clouds.8 mph69%30.07 "HgN/A
12:30 AM72 °FPassing clouds.9 mph69%30.07 "HgN/A
12:00 AM72 °FPassing clouds.10 mph69%30.07 "HgN/A
11:30 PM
Nov 26
72 °FPassing clouds.9 mph69%30.07 "HgN/A
11:00 PM72 °FPassing clouds.10 mph69%30.07 "HgN/A
10:30 PM72 °FPassing clouds.10 mph73%30.07 "HgN/A
10:00 PM72 °FPassing clouds.10 mph73%30.04 "HgN/A
9:30 PM72 °FPassing clouds.13 mph73%30.04 "HgN/A
9:00 PM72 °FPartly cloudy.13 mph73%30.04 "HgN/A
8:30 PM73 °FPartly cloudy.14 mph69%30.04 "HgN/A
8:00 PM73 °FPassing clouds.14 mph69%30.04 "HgN/A
7:30 PM73 °FPassing clouds.13 mph69%30.01 "HgN/A
7:00 PM73 °FPartly cloudy.12 mph69%30.01 "HgN/A
6:30 PM73 °FPassing clouds.13 mph69%30.01 "HgN/A
6:00 PM73 °FPartly cloudy.13 mph69%29.98 "HgN/A
5:30 PM73 °FBroken clouds.13 mph69%29.98 "HgN/A
5:00 PM75 °FBroken clouds.13 mph65%29.98 "HgN/A
4:30 PM75 °FBroken clouds.13 mph69%29.98 "HgN/A
4:00 PM77 °FScattered clouds.14 mph65%29.98 "HgN/A
3:30 PM77 °FPassing clouds.14 mph65%29.95 "HgN/A
3:00 PM77 °FPassing clouds.10 mph69%29.95 "HgN/A
2:30 PM77 °FScattered clouds.9 mph65%29.95 "HgN/A
2:00 PM79 °FPartly sunny.8 mph61%29.95 "HgN/A
1:30 PM77 °FPartly sunny.7 mph65%29.95 "HgN/A
1:00 PM77 °FPartly sunny.7 mph69%29.95 "HgN/A
12:30 PM77 °FPartly sunny.7 mph61%29.98 "HgN/A
12:00 PM77 °FPartly sunny.6 mph61%29.98 "HgN/A
11:30 AM77 °FPartly sunny.5 mph65%29.98 "HgN/A
11:00 AM77 °FPartly sunny.3 mph65%29.98 "HgN/A
10:30 AM77 °FBroken clouds.5 mph69%29.98 "HgN/A
10:00 AM77 °FPartly sunny.7 mph74%29.98 "HgN/A
9:30 AM75 °FScattered clouds.6 mph74%29.98 "HgN/A
9:00 AM73 °FScattered clouds.5 mph83%29.98 "HgN/A
8:30 AM73 °FScattered clouds.3 mph78%29.98 "HgN/A
8:00 AM72 °FScattered clouds.2 mph83%29.98 "HgN/A
7:30 AM72 °FScattered clouds.3 mph83%29.95 "HgN/A
7:00 AM72 °FPassing clouds.3 mph83%29.95 "HgN/A
6:30 AM72 °FPassing clouds.2 mph83%29.92 "HgN/A
6:00 AM72 °FPassing clouds.2 mph83%29.92 "HgN/A
5:30 AM72 °FScattered showers. Passing clouds.3 mph78%29.92 "HgN/A
5:00 AM72 °FPassing clouds.2 mph83%29.92 "HgN/A
Weather by CustomWeather, © 2014

See weather overviewHow to use our weather pages